Time,TemperatureF,DewpointF,PressureIn,WindDirection,WindDirectionDegrees,WindSpeedMPH,WindSpeedGustMPH,Humidity,HourlyPrecipIn,Conditions,Clouds,dailyrainin,SoftwareType,DateUTC
2013-06-30 00:02:00,67.0,51.0,-100.00,SSE,165,6.0,7.0,56,-99.99,,,0.00,,2013-06-30 06:02:00,
2013-06-30 00:12:00,67.0,51.0,-100.00,SSE,165,6.0,7.0,56,-99.99,,,0.00,,2013-06-30 06:12:00,
2013-06-30 00:53:00,63.0,51.0,-100.00,SSE,165,11.0,11.0,63,-99.99,,,0.00,,2013-06-30 06:53:00,
2013-06-30 01:02:00,63.0,51.0,-100.00,SSE,165,11.0,11.0,63,-99.99,,,0.00,,2013-06-30 07:02:00,
2013-06-30 01:53:00,62.0,50.0,-100.00,SSE,150,9.0,10.0,65,-99.99,,,0.00,,2013-06-30 07:53:00,
2013-06-30 02:02:00,62.0,50.0,-100.00,SSE,150,9.0,10.0,65,-99.99,,,0.00,,2013-06-30 08:02:00,
2013-06-30 02:11:00,62.0,50.0,-100.00,SSE,150,9.0,10.0,65,-99.99,,,0.00,,2013-06-30 08:11:00,
2013-06-30 02:22:00,62.0,50.0,-100.00,SSE,150,9.0,10.0,65,-99.99,,,0.00,,2013-06-30 08:22:00,
2013-06-30 02:23:00,62.0,51.0,-100.00,SSE,165,10.0,11.0,67,-99.99,,,0.00,,2013-06-30 08:23:00,
2013-06-30 02:53:00,62.0,51.0,-100.00,SSE,165,10.0,11.0,67,-99.99,,,0.00,,2013-06-30 08:53:00,
2013-06-30 03:01:00,62.0,51.0,-100.00,SSE,165,10.0,11.0,67,-99.99,,,0.00,,2013-06-30 09:01:00,
2013-06-30 03:11:00,62.0,51.0,-100.00,SSE,165,10.0,11.0,67,-99.99,,,0.00,,2013-06-30 09:11:00,
2013-06-30 03:53:00,62.0,50.0,-100.00,SSE,160,11.0,12.0,66,-99.99,,,0.00,,2013-06-30 09:53:00,
2013-06-30 04:02:00,62.0,50.0,-100.00,SSE,160,11.0,12.0,66,-99.99,,,0.00,,2013-06-30 10:02:00,
2013-06-30 04:11:00,62.0,50.0,-100.00,SSE,160,11.0,12.0,66,-99.99,,,0.00,,2013-06-30 10:11:00,
2013-06-30 04:22:00,62.0,50.0,-100.00,SSE,160,11.0,12.0,66,-99.99,,,0.00,,2013-06-30 10:22:00,
2013-06-30 05:22:00,58.0,50.0,-100.00,North,-999,0.0,0.0,75,-99.99,,,0.00,,2013-06-30 11:22:00,
2013-06-30 05:53:00,58.0,50.0,-100.00,North,-999,0.0,0.0,75,-99.99,,,0.00,,2013-06-30 11:53:00,
2013-06-30 06:01:00,58.0,50.0,-100.00,North,-999,0.0,0.0,75,-99.99,,,0.00,,2013-06-30 12:01:00,
2013-06-30 06:11:00,58.0,50.0,-100.00,North,-999,0.0,0.0,75,-99.99,,,0.00,,2013-06-30 12:11:00,
2013-06-30 06:52:00,61.0,51.0,-100.00,SW,235,4.0,4.0,70,-99.99,,,0.00,,2013-06-30 12:52:00,
2013-06-30 07:02:00,61.0,51.0,-100.00,SW,235,4.0,4.0,70,-99.99,,,0.00,,2013-06-30 13:02:00,
2013-06-30 07:12:00,61.0,51.0,-100.00,SW,235,4.0,4.0,70,-99.99,,,0.00,,2013-06-30 13:12:00,
2013-06-30 07:22:00,61.0,51.0,-100.00,SW,235,4.0,4.0,70,-99.99,,,0.00,,2013-06-30 13:22:00,
2013-06-30 08:02:00,64.0,53.0,-100.00,SSE,150,8.0,9.0,67,-99.99,,,0.00,,2013-06-30 14:02:00,
2013-06-30 08:11:00,64.0,53.0,-100.00,SSE,150,8.0,9.0,67,-99.99,,,0.00,,2013-06-30 14:11:00,
2013-06-30 08:22:00,64.0,53.0,-100.00,SSE,150,8.0,9.0,67,-99.99,,,0.00,,2013-06-30 14:22:00,
2013-06-30 09:53:00,74.0,54.0,-100.00,SE,125,4.0,5.0,49,-99.99,,,0.00,,2013-06-30 15:53:00,
2013-06-30 10:01:00,74.0,54.0,-100.00,SE,125,4.0,5.0,49,-99.99,,,0.00,,2013-06-30 16:01:00,
2013-06-30 10:11:00,74.0,54.0,-100.00,SE,125,4.0,5.0,49,-99.99,,,0.00,,2013-06-30 16:11:00,
2013-06-30 10:21:00,74.0,54.0,-100.00,SE,125,4.0,5.0,49,-99.99,,,0.00,,2013-06-30 16:21:00,
2013-06-30 10:23:00,74.0,54.0,-100.00,NNW,345,8.0,12.0,49,-99.99,,,0.00,,2013-06-30 16:23:00,
2013-06-30 10:53:00,74.0,54.0,-100.00,NNW,345,8.0,12.0,49,-99.99,,,0.00,,2013-06-30 16:53:00,
2013-06-30 11:01:00,74.0,54.0,-100.00,NNW,345,8.0,12.0,49,-99.99,,,0.00,,2013-06-30 17:01:00,
2013-06-30 11:11:00,74.0,54.0,-100.00,NNW,345,8.0,12.0,49,-99.99,,,0.00,,2013-06-30 17:11:00,
2013-06-30 11:52:00,76.0,56.0,-100.00,NNW,330,5.0,8.0,50,-99.99,,,0.00,,2013-06-30 17:52:00,
2013-06-30 12:01:00,76.0,56.0,-100.00,NNW,330,5.0,8.0,50,-99.99,,,0.00,,2013-06-30 18:01:00,
2013-06-30 12:12:00,76.0,56.0,-100.00,NNW,330,5.0,8.0,50,-99.99,,,0.00,,2013-06-30 18:12:00,
2013-06-30 12:22:00,76.0,56.0,-100.00,NNW,330,5.0,8.0,50,-99.99,,,0.00,,2013-06-30 18:22:00,
2013-06-30 12:53:00,77.0,56.0,-100.00,NNW,335,8.0,9.0,48,-99.99,,,0.00,,2013-06-30 18:53:00,
2013-06-30 13:01:00,77.0,56.0,-100.00,NNW,335,8.0,9.0,48,-99.99,,,0.00,,2013-06-30 19:01:00,
2013-06-30 13:11:00,77.0,56.0,-100.00,NNW,335,8.0,9.0,48,-99.99,,,0.00,,2013-06-30 19:11:00,
2013-06-30 13:22:00,77.0,56.0,-100.00,NNW,335,8.0,9.0,48,-99.99,,,0.00,,2013-06-30 19:22:00,
2013-06-30 14:52:00,83.0,56.0,-100.00,NNE,15,1.0,2.0,39,-99.99,,,0.00,,2013-06-30 20:52:00,
2013-06-30 15:01:00,83.0,56.0,-100.00,NNE,15,1.0,2.0,39,-99.99,,,0.00,,2013-06-30 21:01:00,
2013-06-30 15:11:00,83.0,56.0,-100.00,NNE,15,1.0,2.0,39,-99.99,,,0.00,,2013-06-30 21:11:00,
2013-06-30 15:22:00,83.0,56.0,-100.00,NNE,15,1.0,2.0,39,-99.99,,,0.00,,2013-06-30 21:22:00,
2013-06-30 15:53:00,83.0,55.0,-100.00,NNW,340,9.0,11.0,38,-99.99,,,0.00,,2013-06-30 21:53:00,
2013-06-30 16:01:00,83.0,55.0,-100.00,NNW,340,9.0,11.0,38,-99.99,,,0.00,,2013-06-30 22:01:00,
2013-06-30 16:11:00,83.0,55.0,-100.00,NNW,340,9.0,11.0,38,-99.99,,,0.00,,2013-06-30 22:11:00,
2013-06-30 16:22:00,83.0,55.0,-100.00,NNW,340,9.0,11.0,38,-99.99,,,0.00,,2013-06-30 22:22:00,
2013-06-30 16:53:00,85.0,56.0,-100.00,NE,50,0.0,1.0,37,-99.99,,,0.00,,2013-06-30 22:53:00,
2013-06-30 17:01:00,85.0,56.0,-100.00,NE,50,0.0,1.0,37,-99.99,,,0.00,,2013-06-30 23:01:00,
2013-06-30 17:11:00,85.0,56.0,-100.00,NE,50,0.0,1.0,37,-99.99,,,0.00,,2013-06-30 23:11:00,
2013-06-30 17:22:00,85.0,56.0,-100.00,NE,50,0.0,1.0,37,-99.99,,,0.00,,2013-06-30 23:22:00,
2013-06-30 17:53:00,84.0,54.0,-100.00,NE,50,8.0,10.0,36,-99.99,,,0.00,,2013-06-30 23:53:00,
2013-06-30 18:01:00,84.0,54.0,-100.00,NE,50,8.0,10.0,36,-99.99,,,0.00,,2013-07-01 00:01:00,
2013-06-30 18:11:00,84.0,54.0,-100.00,NE,50,8.0,10.0,36,-99.99,,,0.00,,2013-07-01 00:11:00,
2013-06-30 18:22:00,84.0,54.0,-100.00,NE,50,8.0,10.0,36,-99.99,,,0.00,,2013-07-01 00:22:00,
2013-06-30 18:52:00,84.0,53.0,-100.00,NE,50,7.0,9.0,35,-99.99,,,0.00,,2013-07-01 00:52:00,
2013-06-30 19:01:00,84.0,53.0,-100.00,NE,50,7.0,9.0,35,-99.99,,,0.00,,2013-07-01 01:01:00,
2013-06-30 19:11:00,84.0,53.0,-100.00,NE,50,7.0,9.0,35,-99.99,,,0.00,,2013-07-01 01:11:00,
2013-06-30 19:52:00,82.0,53.0,-100.00,ENE,65,11.0,12.0,37,-99.99,,,0.00,,2013-07-01 01:52:00,
2013-06-30 20:02:00,82.0,53.0,-100.00,ENE,65,11.0,12.0,37,-99.99,,,0.00,,2013-07-01 02:02:00,
2013-06-30 20:11:00,82.0,53.0,-100.00,ENE,65,11.0,12.0,37,-99.99,,,0.00,,2013-07-01 02:11:00,
2013-06-30 20:22:00,82.0,53.0,-100.00,ENE,65,11.0,12.0,37,-99.99,,,0.00,,2013-07-01 02:22:00,
2013-06-30 20:23:00,79.0,52.0,-100.00,NE,35,8.0,10.0,39,-99.99,,,0.00,,2013-07-01 02:23:00,
2013-06-30 20:54:00,79.0,52.0,-100.00,NE,35,8.0,10.0,39,-99.99,,,0.00,,2013-07-01 02:54:00,
2013-06-30 21:01:00,79.0,52.0,-100.00,NE,35,8.0,10.0,39,-99.99,,,0.00,,2013-07-01 03:01:00,
2013-06-30 21:11:00,79.0,52.0,-100.00,NE,35,8.0,10.0,39,-99.99,,,0.00,,2013-07-01 03:11:00,
2013-06-30 21:52:00,77.0,52.0,-100.00,NE,40,10.0,12.0,43,-99.99,,,0.00,,2013-07-01 03:52:00,
2013-06-30 22:01:00,77.0,52.0,-100.00,NE,40,10.0,12.0,43,-99.99,,,0.00,,2013-07-01 04:01:00,
2013-06-30 22:11:00,77.0,52.0,-100.00,NE,40,10.0,12.0,43,-99.99,,,0.00,,2013-07-01 04:11:00,
2013-06-30 22:22:00,77.0,52.0,-100.00,NE,40,10.0,12.0,43,-99.99,,,0.00,,2013-07-01 04:22:00,
2013-06-30 22:53:00,74.0,54.0,-100.00,NE,40,10.0,12.0,50,-99.99,,,0.00,,2013-07-01 04:53:00,
2013-06-30 23:01:00,74.0,54.0,-100.00,NE,40,10.0,12.0,50,-99.99,,,0.00,,2013-07-01 05:01:00,
2013-06-30 23:11:00,74.0,54.0,-100.00,NE,40,10.0,12.0,50,-99.99,,,0.00,,2013-07-01 05:11:00,
2013-06-30 23:22:00,74.0,54.0,-100.00,NE,40,10.0,12.0,50,-99.99,,,0.00,,2013-07-01 05:22:00,
2013-06-30 23:24:00,70.0,54.0,-100.00,North,-999,0.0,0.0,57,-99.99,,,0.00,,2013-07-01 05:24:00,
2013-06-30 23:52:00,70.0,54.0,-100.00,North,-999,0.0,0.0,57,-99.99,,,0.00,,2013-07-01 05:52:00,